TURKSAT 5B

Last updated on Sun Apr 12 2026 00:02:56 GMT+0000 (Coordinated Universal Time)

1 50212U 21126A 26101.45767506 .00000147 00000+0 00000+0 0 9992 2 50212 0.0766 335.3706 0004877 8.8710 62.1984 1.00272869 15627
UTC large
Height (km)
Speed (km/s)
/
Latitude / Longitude
Inclination (degrees)
Orbital Period (minutes)
Azimuth
Elevation
Range (km)
Doppler Factor

Next 0 passes for location: London (51.5072 / 0.1276)

Sorry there are no passes over London.
TURKSAT 5B